Flag for U.S.A. Weather past 2 weeks in Kykotsmovi Village, Hopi, Arizona, U.S.A.

Now
67 °F

Clear.


Feels Like: 67 °F
Forecast: 56 / 81 °F
Wind: 7 mph from Southwest

Location: Winslow Municipal Airport

Current Time: Sep 2, 2015 at 12:06:45 AM

Latest Report: Sep 1, 2015 at 10:56 PM


Visibility: 10 mi

Pressure: 29.96 "Hg (24.48 "Hg at 1727m altitude)

Humidity: 73%

Dew point: 58 °F

Location of Kykotsmovi Village, HopiLocation

Historic Weather in Kykotsmovi Village, Hopi — Graph

°F

Kykotsmovi Village, Hopi temperature yesterday

Maximum temperature yesterday: 84 °F (at 3:56 PM)
Minimum temperature yesterday: 59 °F (at 5:56 AM)
Average temperature yesterday: 71 °F

Past Weeks' High & Low Weather Summary

 TemperatureHumidityPressure
High97 °F (Aug 18, 12:56 PM)94% (Aug 27, 3:56 AM)30.22 "Hg (Aug 27, 3:56 AM)
Low58 °F (Aug 29, 4:56 AM)13% (Aug 20, 12:56 PM)29.66 "Hg (Aug 18, 4:56 PM)
Average76 °F49%29.91 "Hg
* Reported Aug 17 10:56 PM — Sep 1 10:56 PM, Kykotsmovi Village, Hopi, Weather by CustomWeather, © 2015

Note: Actual official high and low records may vary slightly from our data, if they occured in-between our weather recording intervals... More about our weather records

Advertising

Kykotsmovi Village, Hopi weather history for previous 24 hours

 ConditionsComfort  
Time TempWeatherWind HumidityBarometerVisibility
10:56 PM
Tue, Sep 1
67 °FClear.7 mph73%29.96 "Hg10 mi
9:56 PM69 °FClear.5 mph70%29.96 "Hg10 mi
8:56 PM71 °FClear.8 mph63%29.96 "Hg10 mi
7:56 PM73 °FClear.7 mph57%29.93 "Hg10 mi
6:56 PM76 °FClear.10 mph54%29.93 "Hg10 mi
5:56 PM79 °FBroken clouds.13 mph45%29.91 "Hg10 mi
4:56 PM84 °FPassing clouds.6 mph32%29.89 "Hg10 mi
3:56 PM84 °FSunny.5 mph35%29.88 "Hg10 mi
1:56 PM83 °FSunny.3 mph40%29.91 "Hg10 mi
12:56 PM81 °FSunny.6 mph44%29.95 "Hg10 mi
11:56 AM79 °FSunny.7 mph45%29.97 "Hg10 mi
10:56 AM76 °FSunny.5 mph52%30.00 "Hg10 mi
9:56 AM73 °FSunny.N/A57%30.02 "Hg10 mi
8:56 AM68 °FSunny.No wind70%30.02 "Hg10 mi
7:56 AM64 °FSunny.8 mph81%30.02 "Hg10 mi
6:56 AM60 °FSunny.6 mph90%30.03 "Hg10 mi
5:56 AM59 °FSunny.7 mph90%30.01 "Hg10 mi
4:56 AM60 °FClear.6 mph86%29.99 "Hg10 mi
3:56 AM63 °FClear.6 mph78%29.97 "Hg10 mi
2:56 AM63 °FPartly cloudy.7 mph81%29.97 "Hg10 mi
1:56 AM63 °FPassing clouds.5 mph81%29.99 "Hg10 mi
12:56 AM63 °FClear.3 mph84%29.98 "Hg10 mi
Weather by CustomWeather, © 2015

See weather overviewHow to use our weather pages